DELTA 1 DEB, 2224

Orbit data source: Space-Track

DELTA 1 DEB, 2224 is space debris in SSO originally from a launch on Mon, 28 Feb 1966 UTC launched from the Air Force Eastern Test Range (AFETR). Debris objects in space refer to the collection of defunct objects orbiting the Earth. Examples of debris include non-operational satellites, rocket bodies, and fragments generated from explosions, collisions, or faulty payload assembly.

Loading next visibility...
Identifier
2224, 1966-016D
Orbit
SSO
Country
Flag of USUS
Related business
Manufacturer
Unknown
Mission
Spacecraft
Bus & Motor
Unknown
Mass
1 kg wet, 1 kg dry
Launch date (UTC)
1966-02-28 (60 years ago)
Launch vehicle
Unknown
Launch site
Air Force Eastern Test Range (AFETR)
Object type
Payload
Rocket body
Debris
Shape & HBR
Unknown
Radar Cross Section
Medium (>0.1 m² and <1 m²)

Expand to show TLE details & history
Last TLE update: 4 days ago

TLE from 4 days ago
0 DELTA 1 DEB
1 02224U 66016D   26172.75327722 -.00000030  00000-0  73147-4 0  9992
2 02224 101.1543  91.9728 0137447 215.2888 169.5932 12.52175197746476
Epoch: 2026-06-21T18:04Z
TLE epoch observation values (Epoch: 2026-06-21T18:04:43.151Z)
Latitude
24.6803°
Longitude
-94.32943°
Altitude
1,564.083 km
Speed
7.04 km/s
True Right ascension
05h 47m 11s
True Declination
24° 33' 48"
Sunlit
Object was in daylight at epoch
Visualization orbit readout
Latitude
Unknown
Longitude
Unknown
Altitude
Unknown
Speed
Unknown
Apparent Right ascension
Unknown
Apparent Declination
Unknown
Sunlit
N/A
Visualization observer readout
Local Sidereal Time
00:14:42
Azimuth
Unknown
Elevation
Unknown
Doppler factor
Unknown
Orbital elements
Apogee altitude
1,560.555 km
Perigee altitude
1,345.284 km
Semi-major axis
7,831.056 km
Eccentricity
0.01374
Inclination
101.1543°
RAAN
91.9728°
Arg. of periapsis
215.2888°
True anomaly
169.87297°
Mean anomaly
169.5932°
Eccentric anomaly
169.73356°
Mean motion
3.13193 °/min
Orbital period
114.94 mins
BSTAR
0.000073147
Loading maneuver chart data...
Computing Atmospheric mass density...
Loading historical data...
Loading historical data...
Loading historical data...
Loading historical data...
Loading historical data...
Loading historical data...
Loading historical data...
Other satellites on launch #16 in the year 1966 (1966-02-28 UTC)

Documentation

Showing up to 5 results
|